GW0126 Weather Reports


Display with metric or nautical units.
time (UTC)temp
F
wind
direction
speed
MPH
gust
MPH
rain 1hr
in
rain 24hr
in
rain mn
in
humidity
%
barometer
mb
20260507044225 45 199 0.0 1.0 0.00 0.00 0.00 90 1011.3
20260507043715 45 238 0.0 1.0 0.00 0.00 0.00 89 1011.3
20260507043205 45 233 0.0 1.0 0.00 0.00 0.00 89 1011.4
20260507042734 45 233 0.0 1.0 0.00 0.00 0.00 89 1011.4
20260507042145 45 227 0.0 1.0 0.00 0.00 0.00 89 1011.3
20260507041635 45 224 0.0 2.0 0.00 0.00 0.00 89 1011.1
20260507041125 45 226 1.0 3.0 0.00 0.00 0.00 89 1011.0
20260507040143 45 233 1.0 2.0 0.00 0.00 0.00 90 1011.1
20260507035636 45 250 1.0 3.0 0.00 0.00 0.00 90 1011.0
20260507034616 45 197 0.0 1.0 0.00 0.00 0.00 91 1010.9
20260507034025 45 236 1.0 1.0 0.00 0.00 0.00 91 1011.0
20260507033515 45 209 0.0 2.0 0.00 0.00 0.00 91 1010.7
20260507033005 45 242 0.0 1.0 0.00 0.00 0.00 91 1010.7
20260507032458 45 221 0.0 1.0 0.00 0.00 0.00 91 1010.6
20260507031435 45 243 1.0 1.0 0.00 0.00 0.00 91 1010.6
20260507030415 45 222 0.0 1.0 0.00 0.00 0.00 91 1010.7
20260507025905 45 236 2.0 2.0 0.00 0.00 0.00 91 1010.7
20260507025355 45 233 0.0 2.0 0.00 0.00 0.00 91 1010.5
20260507023828 45 214 0.0 2.0 0.00 0.00 0.00 91 1010.6
20260507023353 45 192 1.0 2.0 0.00 0.00 0.00 92 1010.5
20260507022255 45 235 0.0 1.0 0.00 0.00 0.00 92 1010.6
20260507021823 45 233 0.0 2.0 0.00 0.00 0.00 92 1010.4
20260507021313 45 230 1.0 2.0 0.00 0.00 0.00 92 1010.3
20260507020725 45 235 0.0 2.0 0.00 0.00 0.00 92 1010.5
20260507013624 45 212 0.0 2.0 0.00 0.00 0.00 92 1010.7
20260507013115 45 231 0.0 0.0 0.00 0.00 0.00 92 1010.5
20260507012133 45 241 1.0 4.0 0.00 0.00 0.00 92 1010.2
20260507011545 45 248 1.0 1.0 0.00 0.00 0.00 92 1010.4
20260507010524 45 221 0.0 2.0 0.00 0.00 0.00 92 1010.3
20260507004447 45 232 0.0 4.0 0.00 0.00 0.00 92 1009.9
20260507004012 44 238 1.0 3.0 0.00 0.00 0.00 92 1009.8
20260507002915 45 233 0.0 3.0 0.00 0.00 0.00 92 1009.6
20260507001854 45 213 0.0 0.0 0.00 0.00 0.00 92 1009.7
20260507000324 45 233 0.0 1.0 0.00 0.00 0.00 92 1009.6
20260506235814 45 249 1.0 2.0 0.00 0.00 0.00 91 1009.8
20260506235343 45 223 1.0 1.0 0.00 0.00 0.00 91 1009.9
20260506234757 45 228 0.0 1.0 0.00 0.00 0.00 92 1009.8
20260506234244 45 218 1.0 1.0 0.00 0.00 0.00 92 1009.8
20260506233734 45 257 1.0 3.0 0.00 0.00 0.00 91 1009.9
20260506233224 45 244 1.0 2.0 0.00 0.00 0.00 92 1009.9
20260506232714 45 221 0.0 1.0 0.00 0.00 0.00 92 1009.7
20260506231654 45 229 1.0 4.0 0.00 0.00 0.00 92 1009.8
20260506230635 45 233 0.0 4.0 0.00 0.00 0.00 92 1009.6
20260506225614 46 248 0.0 1.0 0.00 0.00 0.00 94 1009.7
20260506224554 46 237 1.0 2.0 0.00 0.00 0.00 94 1009.4
20260506224044 46 296 1.0 3.0 0.00 0.00 0.00 93 1009.4
20260506222552 47 276 1.0 2.0 0.00 0.00 0.00 93 1009.3
20260506222004 47 241 2.0 3.0 0.00 0.00 0.00 93 1009.4
20260506221454 47 310 2.0 3.0 0.00 0.00 0.00 92 1009.4
20260506220944 48 276 2.0 2.0 0.00 0.00 0.00 92 1009.1
20260506220434 48 223 0.0 4.0 0.00 0.00 0.00 93 1009.1
20260506215924 48 235 1.0 1.0 0.00 0.00 1.13 93 1009.1
20260506214904 49 241 0.0 2.0 0.00 0.00 1.13 93 1009.1
20260506213334 49 261 1.0 1.0 0.00 0.00 1.13 94 1008.9
20260506212827 49 228 0.0 2.0 0.00 0.00 1.13 94 1008.8
20260506211804 49 284 2.0 2.0 0.00 0.00 1.13 94 1008.9
20260506211254 50 227 0.0 1.0 0.00 0.00 1.13 94 1008.9
20260506210744 50 229 0.0 1.0 0.00 0.00 1.13 94 1008.7
20260506205727 50 230 0.0 1.0 0.00 0.00 1.13 94 1008.8
20260506204154 50 213 0.0 1.0 0.00 0.00 1.13 95 1008.8
20260506203647 50 238 1.0 3.0 0.00 0.00 1.13 95 1008.8
20260506202624 50 231 0.0 2.0 0.00 0.00 1.13 94 1008.7
20260506201726 50 238 0.0 2.0 0.00 0.00 1.13 94 1008.7
20260506201132 50 244 0.0 1.0 0.00 0.00 1.13 94 1008.6
20260506200544 50 218 0.0 1.0 0.00 0.00 1.13 94 1008.7
20260506195524 50 230 0.0 1.0 0.00 0.00 1.13 95 1008.7
20260506195014 50 255 1.0 2.0 0.00 0.00 1.13 95 1008.4
20260506194504 50 229 0.0 1.0 0.00 0.00 1.13 95 1008.4
20260506193444 50 231 0.0 0.0 0.00 0.00 1.13 95 1008.4
20260506192934 50 233 0.0 0.0 0.00 0.00 1.13 95 1008.2
20260506192423 50 238 0.0 1.0 0.00 0.00 1.13 95 1008.4
20260506191914 50 223 0.0 0.0 0.00 0.00 1.13 95 1008.6
20260506191442 51 229 0.0 0.0 0.00 0.00 1.13 95 1008.3
20260506190854 51 228 0.0 0.0 0.00 0.00 1.13 95 1008.4
20260506190422 51 250 1.0 1.0 0.00 0.00 1.13 95 1008.3
20260506185915 50 245 0.0 1.0 0.00 0.00 1.13 95 1008.0
20260506184814 51 240 1.0 3.0 0.00 0.00 1.13 94 1007.8
20260506183754 51 244 0.0 1.0 0.00 0.00 1.13 94 1007.8
20260506182224 51 247 1.0 1.0 0.00 0.00 1.13 94 1007.8
20260506181752 51 253 1.0 2.0 0.00 0.00 1.13 94 1007.8
20260506181203 51 238 0.0 1.0 0.00 0.00 1.13 94 1007.6
20260506180143 51 242 1.0 2.0 0.00 0.00 1.13 93 1007.6
20260506175633 52 234 0.0 1.0 0.00 0.00 1.13 93 1007.5
20260506174103 52 220 0.0 1.0 0.00 0.00 1.13 94 1007.3
20260506172612 52 199 1.0 2.0 0.00 0.00 1.13 94 1007.6
20260506172024 52 259 1.0 2.0 0.00 0.00 1.13 93 1007.4
20260506170531 53 226 0.0 1.0 0.00 0.00 1.13 93 1007.5
20260506170021 53 278 1.0 3.0 0.00 0.00 1.13 93 1007.1
20260506165436 53 254 1.0 4.0 0.00 0.00 1.13 93 1007.3
20260506164923 53 259 2.0 2.0 0.00 0.00 1.13 92 1007.1
20260506164416 53 263 1.0 3.0 0.00 0.00 1.13 92 1007.1
20260506163941 53 241 0.0 3.0 0.00 0.00 1.13 92 1007.1
20260506163355 53 246 1.0 2.0 0.00 0.00 1.13 92 1007.0
20260506162844 54 248 1.0 2.0 0.00 0.00 1.13 91 1007.4
20260506162333 55 245 1.0 2.0 0.00 0.00 1.13 90 1007.1
20260506160803 55 233 0.0 1.0 0.00 0.00 1.13 90 1007.2
20260506160253 55 180 0.0 0.0 0.00 0.00 1.13 91 1007.1
20260506155743 55 229 0.0 1.0 0.00 0.00 1.13 92 1007.3
20260506155233 55 232 0.0 2.0 0.00 0.00 1.13 93 1007.3
20260506154213 54 223 0.0 1.0 0.00 0.00 1.13 94 1007.3
20260506153703 54 243 1.0 1.0 0.00 0.00 1.13 94 1007.4
20260506153153 54 225 1.0 1.0 0.00 0.00 1.13 95 1007.3
20260506152133 54 266 1.0 2.0 0.00 0.00 1.13 94 1007.3
20260506151623 54 223 0.0 1.0 0.00 0.00 1.13 94 1007.3
20260506150603 54 227 0.0 1.0 0.00 0.00 1.13 94 1007.2
20260506150131 54 234 0.0 2.0 0.00 0.00 1.13 94 1007.1
20260506145033 55 225 0.0 2.0 0.00 0.00 1.13 92 1007.0
20260506144523 54 259 1.0 1.0 0.00 0.00 1.13 92 1007.0
20260506142443 55 268 0.0 3.0 0.00 0.00 1.13 91 1007.1
20260506142011 55 231 0.0 1.0 0.00 0.00 1.13 91 1007.0
20260506135853 54 247 1.0 1.0 0.00 0.00 1.13 95 1007.2
20260506135343 54 221 0.0 2.0 0.00 0.00 1.13 94 1007.1
20260506134323 54 228 1.0 2.0 0.00 0.00 1.13 95 1007.2
20260506133851 54 222 0.0 1.0 0.00 0.00 1.13 95 1007.0
20260506133341 54 215 1.0 3.0 0.00 0.00 1.13 97 1007.0
20260506132753 54 243 0.0 2.0 0.00 0.00 1.13 98 1007.3
20260506132243 54 219 0.0 1.0 0.00 0.00 1.13 99 1007.2
20260506131811 53 217 0.0 1.0 0.00 0.00 1.13 99 1007.2
20260506131301 53 232 2.0 3.0 0.00 0.00 1.13 99 1007.1
20260506130713 53 257 1.0 1.0 0.00 0.00 1.13 99 1007.2
20260506130326 53 209 0.0 1.0 0.01 0.00 1.13 99 1007.0
20260506125221 53 273 2.0 2.0 0.01 0.00 1.13 99 1007.1
20260506124711 52 285 2.0 3.0 0.01 0.00 1.13 99 1006.9
20260506124122 52 237 1.0 2.0 0.01 0.00 1.13 99 1007.2
20260506123613 52 230 0.0 1.0 0.01 0.00 1.13 99 1006.9
20260506122552 52 234 0.0 2.0 0.01 0.00 1.13 99 1006.9
20260506121022 52 230 1.0 1.0 0.01 0.00 1.13 99 1006.9
20260506115452 52 285 0.0 3.0 0.00 0.00 1.12 99 1006.7
20260506114942 52 220 0.0 1.0 0.00 0.00 1.12 99 1006.7
20260506113413 52 216 0.0 0.0 0.00 0.00 1.12 99 1006.7
20260506112905 52 224 0.0 1.0 0.00 0.00 1.12 99 1006.6
20260506112352 52 216 0.0 0.0 0.00 0.00 1.12 99 1006.3
20260506111921 52 223 0.0 0.0 0.00 0.00 1.12 99 1006.3
20260506111412 52 98 2.0 3.0 0.00 0.00 1.12 99 1006.5
20260506110822 52 207 0.0 1.0 0.00 0.00 1.12 99 1006.5
20260506110354 52 223 0.0 1.0 0.00 0.00 1.12 99 1006.4
20260506105252 52 219 0.0 1.0 0.01 0.00 1.12 99 1006.1
20260506103722 52 220 0.0 1.0 0.02 0.00 1.12 99 1006.2
20260506103212 52 222 0.0 1.0 0.03 0.00 1.12 99 1006.3
20260506102702 52 220 0.0 0.0 0.04 0.00 1.12 99 1006.2
20260506102152 52 225 0.0 1.0 0.05 0.00 1.12 99 1006.0
20260506101642 52 207 0.0 1.0 0.06 0.00 1.12 99 1006.3
20260506101132 52 231 1.0 1.0 0.07 0.00 1.12 99 1005.8
20260506100622 51 227 0.0 2.0 0.07 0.00 1.12 99 1006.0
20260506095052 51 236 0.0 2.0 0.08 0.00 1.11 99 1005.8
20260506094542 51 214 1.0 1.0 0.09 0.00 1.11 99 1006.0
20260506094032 51 267 1.0 1.0 0.09 0.00 1.10 99 1005.8
20260506093051 51 253 0.0 2.0 0.09 0.00 1.08 99 1005.7
20260506091952 51 214 0.0 2.0 0.10 0.00 1.06 99 1005.5
20260506091442 51 217 0.0 2.0 0.10 0.00 1.05 99 1005.7
20260506091010 51 219 0.0 1.0 0.12 0.00 1.05 99 1005.7
20260506090501 51 258 0.0 1.0 0.12 0.00 1.04 99 1005.4
20260506085912 51 260 2.0 3.0 0.13 0.00 1.03 99 1005.7
20260506085402 51 229 0.0 2.0 0.14 0.00 1.03 99 1005.3
20260506083832 51 220 1.0 4.0 0.17 0.00 1.00 99 1005.4
20260506083400 51 259 0.0 2.0 0.18 0.00 0.99 99 1005.3
20260506081752 50 221 0.0 1.0 0.21 0.00 0.95 99 1005.4
20260506081320 50 231 1.0 2.0 0.22 0.00 0.94 99 1005.3
20260506073122 50 240 0.0 0.0 0.18 0.00 0.79 99 1005.1
20260506072612 50 224 0.0 1.0 0.17 0.00 0.77 99 1005.1
20260506072140 50 234 0.0 1.0 0.16 0.00 0.75 99 1005.0
20260506071120 50 219 0.0 1.0 0.11 0.00 0.70 99 1005.1
20260506060332 50 221 0.0 1.0 0.05 0.00 0.58 99 1004.7
20260506051229 50 299 1.0 1.0 0.06 0.00 0.54 99 1004.9
20260506050641 50 225 1.0 1.0 0.06 0.00 0.54 99 1004.8
20260506050131 50 220 0.0 1.0 0.07 0.00 0.53 99 1004.9